This is the latest recevied weather packets stored in our database for station/object K7KAR-2. If no packets are shown the sender has not sent any weather packets the latest 10 day(s).
| Time | Temp. | Humidity | Pressure | Rain* | Wind** | Luminosity | Snow |
|---|---|---|---|---|---|---|---|
| 1777801398 | 9.44° C | 64% | 1017.2 hPa | 0 mm | - | 0 W/m² | - |
| 1777801094 | 10° C | 62% | 1017 hPa | 0 mm | - | 0 W/m² | - |
| 1777800791 | 10° C | 63% | 1016.9 hPa | 0 mm | - | 0 W/m² | - |
| 1777800486 | 11.11° C | 47% | 1016.5 hPa | 0 mm | - | 0 W/m² | - |
| 1777800183 | 10° C | 47% | 1016.3 hPa | 0 mm | - | 0 W/m² | - |
| 1777799883 | 8.33° C | 51% | 1015.9 hPa | 0 mm | - | 0 W/m² | - |
| 1777799580 | 8.33° C | 55% | 1015.7 hPa | 0 mm | - | 0 W/m² | - |
| 1777799276 | 7.78° C | 56% | 1015.1 hPa | 0 mm | - | 0 W/m² | - |
| 1777798972 | 7.78° C | 55% | 1015.5 hPa | 0 mm | - | 0 W/m² | - |
| 1777798668 | 9.44° C | 51% | 1015.5 hPa | 0 mm | - | 0 W/m² | - |
| 1777798365 | 9.44° C | 45% | 1015.6 hPa | 0 mm | - | 0 W/m² | - |
| 1777798062 | 8.33° C | 51% | 1015.6 hPa | 0 mm | - | 0 W/m² | - |
| 1777797760 | 10.56° C | 45% | 1015.6 hPa | 0 mm | - | 0 W/m² | - |
| 1777797457 | 8.89° C | 49% | 1015.8 hPa | 0 mm | - | 0 W/m² | - |
| 1777797154 | 8.33° C | 51% | 1016.1 hPa | 0 mm | - | 0 W/m² | - |
| 1777796851 | 7.78° C | 53% | 1016.1 hPa | 0 mm | - | 0 W/m² | - |
| 1777796548 | 7.22° C | 52% | 1016.3 hPa | 0 mm | - | 0 W/m² | - |
| 1777796242 | 7.22° C | 52% | 1016.3 hPa | 0 mm | - | 0 W/m² | - |
| 1777795940 | 6.67° C | 54% | 1016.4 hPa | 0 mm | - | 0 W/m² | - |
| 1777795635 | 6.67° C | 53% | 1016.1 hPa | 0 mm | - | 0 W/m² | - |
| 1777795333 | 6.67° C | 54% | 1016.1 hPa | 0 mm | - | 0 W/m² | - |
| 1777795029 | 6.11° C | 54% | 1015.9 hPa | 0 mm | - | 0 W/m² | - |
| 1777794726 | 6.67° C | 53% | 1015.7 hPa | 0 mm | - | 0 W/m² | - |
| 1777794421 | 6.67° C | 53% | 1015.6 hPa | 0 mm | - | 0 W/m² | - |
| 1777794117 | 6.11° C | 54% | 1015.6 hPa | 0 mm | - | 0 W/m² | - |
* Rain latest hour (hover to see other rain measurements)
** Current wind speed in m/s (hover to see current wind gust speed)